[[{"header":{"parameterUnit":"m.s-1","parameterCategory":1,"la1":30.2991,"la2":30.254,"lo1":-89.0895,"lo2":-89.0444,"dy":0.0017,"dx":0.0017,"nx":28,"ny":28,"refTime":"2025-03-14T03:00:00:Z","depth":0,"parameterNumber":2,"parameterNumberName":"U-component_of_WINDS"},"data":[0,0,0,0,0,0,0,0,0,0,0,0,0,0,0,0,0,0,0,0,0,0,0,0,0,0,0,0,0,0,0,0,0,0,0,0,0,0,0,0,0,0,0,0,0,0,0,0,0,0,0,0,0,0,0,0,0,0,-4.7986,-4.7988,0,-4.8115,-4.8117,-4.8118,-4.814,-4.8139,-4.8138,-4.8136,-4.8269,-4.8273,-4.8278,0,0,0,0,0,0,0,0,0,0,0,0,0,-4.7758,-4.7762,-4.7986,-4.7988,-4.7989,-4.8115,-4.8117,-4.8119,-4.814,-4.8139,-4.8137,-4.8136,-4.8267,-4.8273,-4.8278,0,0,0,0,0,0,0,0,0,0,0,0,0,-4.7869,-4.7764,-4.7986,-4.8015,-4.8019,-4.8115,-4.8117,-4.8119,-4.814,-4.8139,-4.8137,-4.8135,-4.8265,-4.8272,-4.8279,-4.8354,0,0,-4.83,-4.8303,0,0,0,0,0,0,0,0,-4.7863,-4.7878,-4.8009,-4.8013,-4.8018,-4.811,-4.8085,-4.8198,-4.8141,-4.8094,-4.8136,-4.8135,-4.8217,-4.8228,-4.8256,-4.836,-4.8366,-4.83,-4.8304,-4.8307,-4.8309,0,0,0,0,0,0,0,-4.7855,-4.7872,-4.8037,-4.8011,-4.8016,-4.8022,-4.8036,-4.8107,-4.8163,-4.8098,-4.81,-4.8115,-4.8219,-4.8249,-4.8259,-4.8368,-4.83,-4.8306,-4.831,-4.8313,-4.854,-4.8542,0,0,0,0,0,0,-4.7842,-4.7866,-4.8033,-4.8041,-4.7935,-4.8027,-4.8043,-4.8082,-4.8163,-4.8173,-4.8116,-4.8116,-4.8238,-4.8251,-4.8264,-4.8356,-4.8307,-4.8314,-4.8318,-4.8539,-4.8541,-4.8543,0,0,0,0,0,0,-4.7837,-4.7857,-4.8028,-4.7954,-4.7976,-4.8033,-4.8077,-4.8085,-4.8115,-4.8176,-4.8187,-4.8136,-4.8237,-4.8254,-4.8331,-4.8361,-4.8317,-4.8323,-4.8536,-4.8539,-4.8542,-4.8542,0,0,0,0,0,0,-4.7831,-4.7855,-4.7884,-4.7955,-4.798,-4.8093,-4.8079,-4.8089,-4.8127,-4.8127,-4.8198,-4.8208,-4.8237,-4.8321,-4.8338,-4.837,-4.8328,-4.8534,-4.8538,-4.8541,-4.8539,-4.8545,-4.8549,0,0,0,0,0,-4.7823,-4.7879,-4.7886,-4.7906,-4.8018,-4.8095,-4.8109,-4.8142,-4.8129,-4.8159,-4.8198,-4.8206,-4.8356,-4.8329,-4.8348,-4.8382,-4.8532,-4.8537,-4.8541,-4.8537,-4.8544,-4.8549,0,0,0,0,0,0,-4.7811,-4.7889,-4.7897,-4.7978,-4.803,-4.8098,-4.8136,-4.8148,-4.8204,-4.8202,-4.824,-4.8256,-4.8331,-4.8365,-4.8334,-4.8459,-4.8443,-4.8451,-4.8434,-4.844,-4.8444,-4.8434,-4.8334,0,0,0,0,0,-4.7818,-4.7874,-4.794,-4.8005,-4.803,-4.8079,-4.8114,-4.8135,-4.819,-4.8212,-4.8257,-4.831,-4.8369,-4.8407,-4.8465,-4.8546,-4.8561,-4.8579,-4.8583,-4.8587,-4.8593,-4.8637,-4.8645,-4.8557,-4.8557,-4.8557,0,0,-4.7833,-4.7882,-4.7915,-4.8004,-4.8046,-4.8103,-4.8097,-4.8158,-4.8201,-4.8221,-4.8296,-4.8331,-4.8393,-4.8472,-4.8509,-4.8503,-4.8621,-4.8592,-4.8595,-4.8599,-4.8642,-4.8651,-4.8658,-4.856,-4.856,-4.8559,0,0,-4.7888,-4.7932,-4.799,-4.8033,-4.8098,-4.813,-4.8144,-4.8211,-4.8235,-4.8311,-4.8328,-4.8379,-4.848,-4.8523,-4.8559,-4.8631,-4.864,-4.8649,-4.8672,-4.8715,-4.8722,-4.8728,-4.8752,-4.8761,-4.8656,-4.8656,-4.8656,0,-4.7898,-4.7984,-4.8019,-4.8079,-4.8117,-4.8139,-4.8198,-4.8238,-4.8318,-4.8344,-4.8336,-4.8463,-4.8506,-4.8595,-4.8612,-4.8641,-4.8657,-4.864,-4.8718,-4.8725,-4.8731,-4.8755,-4.8764,-4.8656,-4.8656,-4.8656,-4.8656,0,-4.7993,-4.8052,-4.8092,-4.8168,-4.8211,-4.8271,-4.8314,-4.8354,-4.8371,-4.8404,-4.8481,-4.8535,-4.8603,-4.8626,-4.8644,-4.8718,-4.8711,-4.8711,-4.8694,-4.8739,-4.8762,-4.8771,-4.8657,-4.8657,-4.8657,-4.8657,0,0,-4.8042,-4.8138,-4.8151,-4.8186,-4.8259,-4.8306,-4.8366,-4.8433,-4.8465,-4.8521,-4.8571,-4.8657,-4.8656,-4.8696,-4.872,-4.8757,-4.881,-4.8752,-4.8754,-4.8759,-4.8892,-4.889,-4.89,-4.8817,-4.8819,-4.882,-4.8886,0,-4.8105,-4.8212,-4.8246,-4.8336,-4.8391,-4.8413,-4.8466,-4.8516,-4.8549,-4.8601,-4.8638,-4.8697,-4.8693,-4.8717,-4.8755,-4.8795,-4.8836,-4.8791,-4.8863,-4.8866,-4.8844,-4.8913,-4.8911,-4.8971,-4.8896,-4.8897,-4.8898,0,-4.8191,-4.8247,-4.8342,-4.8408,-4.8432,-4.8479,-4.8543,-4.8592,-4.865,-4.8671,-4.8716,-4.8736,-4.88,-4.8783,-4.8871,-4.8839,-4.8871,-4.8895,-4.8898,-4.8904,-4.8883,-4.8918,-4.8991,-4.8999,-4.8913,-4.8912,-4.8911,0,-4.8215,-4.8315,-4.8384,-4.8414,-4.8492,-4.8524,-4.8559,-4.8615,-4.8653,-4.8709,-4.8734,-4.8797,-4.8831,-4.8879,-4.8916,-4.89,-4.9001,-4.8986,-4.9019,-4.9018,-4.9037,-4.9035,-4.9113,-4.9062,-4.9062,-4.9061,-4.9061,0,-4.828,-4.8337,-4.8396,-4.8438,-4.8503,-4.8542,-4.8604,-4.864,-4.869,-4.874,-4.8764,-4.881,-4.8857,-4.8909,-4.8939,-4.9006,-4.9022,-4.9041,-4.9047,-4.9037,-4.9034,-4.9057,-4.9053,-4.9064,-4.9063,-4.9063,-4.9062,0,-4.8316,-4.8359,-4.8436,-4.8504,-4.8523,-4.8567,-4.8626,-4.8668,-4.8702,-4.8765,-4.8782,-4.8836,-4.8899,-4.8941,-4.9022,-4.9041,-4.9114,-4.9121,-4.9094,-4.9097,-4.9127,-4.9122,-4.922,-4.9234,-4.9175,-4.9176,-4.9176,0,-4.8354,-4.8398,-4.8471,-4.8506,-4.854,-4.8597,-4.8635,-4.8676,-4.8715,-4.8784,-4.8818,-4.8882,-4.8936,-4.9036,-4.9082,-4.9144,-4.9151,-4.9181,-4.9161,-4.9149,-4.9149,-4.9145,-4.9149,-4.9184,-4.9184,-4.9185,-4.9185,0,-4.8415,-4.8433,-4.8488,-4.855,-4.8596,-4.8647,-4.8698,-4.8725,-4.8774,-4.8817,-4.8882,-4.8923,-4.9006,-4.9069,-4.9136,-4.9171,-4.9186,-4.9191,-4.9202,-4.9191,-4.9172,-4.9181,-4.9101,-4.9188,-4.9188,-4.9188,-4.9188,-4.9187,-4.8452,-4.8492,-4.8549,-4.8609,-4.8652,-4.8699,-4.8742,-4.8781,-4.8836,-4.8905,-4.8926,-4.8993,-4.905,-4.9141,-4.9178,-4.923,-4.9227,-4.9243,-4.9247,-4.9249,-4.9248,-4.9166,-4.9243,-4.9243,-4.9243,-4.9243,-4.9243,0,-4.8512,-4.855,-4.8605,-4.8676,-4.8723,-4.8734,-4.8791,-4.8829,-4.8888,-4.894,-4.8992,-4.9066,-4.9128,-4.9179,-4.9243,-4.9275,-4.9284,-4.9291,-4.9287,-4.9295,-4.9248,-4.9232,-4.9283,-4.9283,-4.9283,-4.9283,-4.9283,-4.9283,-4.8549,-4.8617,-4.8642,-4.8731,-4.8769,-4.8834,-4.8866,-4.891,-4.8951,-4.9032,-4.9084,-4.9117,-4.9169,-4.9237,-4.9294,-4.9307,-4.9329,-4.9334,-4.9349,-4.9303,-4.9299,-4.9294,-4.9279,-4.9339,-4.9339,-4.9391,-4.9391,-4.9392]},{"header":{"parameterUnit":"m.s-1","parameterCategory":1,"la1":30.2991,"la2":30.254,"lo1":-89.0895,"lo2":-89.0444,"dy":0.0017,"dx":0.0017,"nx":28,"ny":28,"refTime":"2025-03-14T03:00:00:Z","depth":0,"parameterNumber":3,"parameterNumberName":"V-component_of_WINDS"},"data":[0,0,0,0,0,0,0,0,0,0,0,0,0,0,0,0,0,0,0,0,0,0,0,0,0,0,0,0,0,0,0,0,0,0,0,0,0,0,0,0,0,0,0,0,0,0,0,0,0,0,0,0,0,0,0,0,0,0,5.4611,5.4612,0,5.4706,5.4707,5.4708,5.4722,5.4721,5.472,5.472,5.4813,5.4816,5.4819,0,0,0,0,0,0,0,0,0,0,0,0,0,5.444,5.4444,5.4611,5.4612,5.4613,5.4706,5.4707,5.4708,5.4722,5.4721,5.472,5.4719,5.4812,5.4816,5.482,0,0,0,0,0,0,0,0,0,0,0,0,0,5.4523,5.4445,5.4611,5.4632,5.4634,5.4706,5.4707,5.4709,5.4723,5.4721,5.472,5.4719,5.4811,5.4815,5.482,5.4876,0,0,5.4835,5.4837,0,0,0,0,0,0,0,0,5.4518,5.4529,5.4627,5.463,5.4634,5.4701,5.4681,5.4765,5.4723,5.4689,5.472,5.4718,5.4776,5.4784,5.4805,5.488,5.4884,5.4836,5.4839,5.4841,5.4842,0,0,0,0,0,0,0,5.4512,5.4525,5.4648,5.4629,5.4633,5.4636,5.4646,5.4697,5.4738,5.4692,5.4693,5.4704,5.4778,5.48,5.4807,5.4886,5.4835,5.484,5.4843,5.4845,5.5015,5.5017,0,0,0,0,0,0,5.4503,5.452,5.4645,5.4651,5.4572,5.464,5.4651,5.4681,5.4738,5.4746,5.4705,5.4705,5.4792,5.4801,5.481,5.4882,5.4841,5.4845,5.4848,5.5014,5.5016,5.5018,0,0,0,0,0,0,5.4499,5.4514,5.4642,5.4586,5.4603,5.4644,5.4677,5.4683,5.4705,5.4748,5.4755,5.472,5.4791,5.4803,5.4861,5.4885,5.4847,5.4852,5.5012,5.5014,5.5017,5.5024,0,0,0,0,0,0,5.4495,5.4513,5.4535,5.4587,5.4606,5.4691,5.4678,5.4686,5.4714,5.4714,5.4764,5.4771,5.4791,5.4853,5.4865,5.4891,5.4856,5.501,5.5013,5.5016,5.5022,5.5026,5.503,0,0,0,0,0,5.4488,5.4531,5.4536,5.4551,5.4634,5.4692,5.4703,5.4726,5.4716,5.4738,5.4767,5.477,5.488,5.4859,5.4873,5.49,5.5009,5.5012,5.5016,5.502,5.5025,5.503,0,0,0,0,0,0,5.4479,5.4538,5.4544,5.4605,5.4644,5.4695,5.4723,5.4731,5.4772,5.477,5.4796,5.4808,5.4864,5.4888,5.4863,5.4959,5.4944,5.495,5.4942,5.4947,5.4952,5.4945,5.486,0,0,0,0,0,5.4484,5.4528,5.4577,5.4626,5.4645,5.4681,5.4707,5.4722,5.4763,5.4779,5.4811,5.485,5.4894,5.4921,5.4964,5.5025,5.5037,5.5051,5.5055,5.5059,5.5064,5.5101,5.5108,5.5029,5.5029,5.5029,0,0,5.4495,5.4533,5.4558,5.4625,5.4657,5.4701,5.4695,5.4741,5.4774,5.4785,5.4843,5.4868,5.4913,5.4973,5.5001,5.4994,5.5089,5.5063,5.5065,5.5069,5.5105,5.5113,5.512,5.5032,5.5031,5.5031,0,0,5.4538,5.457,5.4616,5.4649,5.4698,5.4722,5.4733,5.4784,5.4802,5.486,5.4871,5.491,5.4984,5.5017,5.5043,5.5102,5.5107,5.5114,5.5137,5.5172,5.5179,5.5184,5.5208,5.5215,5.512,5.512,5.512,0,5.4545,5.4613,5.4638,5.4686,5.4716,5.473,5.4778,5.4808,5.4867,5.4888,5.488,5.4976,5.5006,5.5076,5.5091,5.5111,5.5125,5.5109,5.5176,5.5182,5.5188,5.521,5.5218,5.5121,5.512,5.512,5.512,0,5.462,5.4667,5.4699,5.4759,5.4792,5.4839,5.4872,5.4902,5.4915,5.494,5.5,5.5038,5.509,5.5107,5.5119,5.518,5.5174,5.5171,5.5156,5.5196,5.5217,5.5226,5.5122,5.5121,5.5121,5.5121,0,0,5.4658,5.4735,5.4746,5.4775,5.4832,5.4868,5.4916,5.4969,5.4996,5.5037,5.5079,5.5143,5.5141,5.5171,5.5186,5.5218,5.5265,5.5211,5.5212,5.5221,5.5337,5.534,5.535,5.5269,5.527,5.5272,5.5334,0,5.471,5.4798,5.4824,5.4897,5.4943,5.4958,5.5001,5.504,5.5065,5.5107,5.5134,5.518,5.5173,5.5191,5.5223,5.5252,5.5289,5.5248,5.5308,5.531,5.5298,5.536,5.5364,5.542,5.5342,5.5343,5.5344,0,5.4781,5.4827,5.4906,5.496,5.498,5.5017,5.5069,5.5108,5.5154,5.517,5.5205,5.5219,5.527,5.5252,5.5324,5.5296,5.5322,5.5341,5.5344,5.5351,5.533,5.5371,5.5439,5.5448,5.5357,5.5356,5.5355,0,5.4804,5.4885,5.4944,5.4967,5.5031,5.5058,5.5085,5.513,5.5161,5.5205,5.5226,5.5276,5.5303,5.5341,5.5368,5.5352,5.5439,5.5422,5.5454,5.5454,5.5472,5.5471,5.5547,5.5487,5.5486,5.5486,5.5486,0,5.4859,5.4908,5.4955,5.4992,5.5047,5.5076,5.5129,5.5157,5.5197,5.524,5.5255,5.5294,5.5327,5.537,5.5391,5.5449,5.5461,5.5476,5.5481,5.5475,5.5474,5.5494,5.5491,5.5489,5.5488,5.5488,5.5487,0,5.4895,5.4928,5.4994,5.505,5.5065,5.5104,5.5151,5.5187,5.5214,5.5267,5.5281,5.5322,5.5375,5.5405,5.547,5.5485,5.555,5.5552,5.5535,5.5538,5.5569,5.5567,5.5662,5.5676,5.5604,5.5605,5.5606,0,5.4929,5.4967,5.5028,5.5058,5.5087,5.5135,5.5168,5.5198,5.5231,5.5288,5.5317,5.5371,5.5416,5.5499,5.5534,5.5585,5.559,5.562,5.5598,5.5592,5.5593,5.5591,5.5596,5.5624,5.5624,5.5625,5.5625,0,5.4986,5.5002,5.5049,5.5103,5.5142,5.5186,5.5229,5.5252,5.529,5.5327,5.5382,5.5417,5.5485,5.5539,5.5593,5.5621,5.563,5.5632,5.5643,5.5638,5.5628,5.5636,5.5547,5.563,5.563,5.5629,5.5629,5.5629,5.5024,5.506,5.5109,5.5162,5.5198,5.5239,5.5277,5.5309,5.5356,5.5415,5.543,5.5488,5.5534,5.5609,5.5638,5.5684,5.5679,5.5693,5.5698,5.5701,5.5703,5.5619,5.5694,5.5693,5.5693,5.5693,5.5693,0,5.5084,5.5118,5.5166,5.5228,5.5269,5.5276,5.5324,5.5359,5.541,5.5454,5.5498,5.5563,5.5615,5.5656,5.571,5.5739,5.5745,5.5753,5.5752,5.5759,5.5704,5.569,5.5747,5.5747,5.5747,5.5747,5.5747,5.5747,5.5121,5.5183,5.5205,5.5285,5.5318,5.5377,5.5404,5.5442,5.5477,5.5549,5.5594,5.562,5.5663,5.5721,5.577,5.5781,5.5801,5.5808,5.582,5.5768,5.5762,5.5756,5.5744,5.5812,5.5812,5.5871,5.5872,5.5872]}]]